Location: Caltech
(34.1382°N, 118.1253°W)
Time: 21:00:36
(UTC-07:00)

Lacrosse 5 - Visible Passes

Search period start: 19 August 2017 00:00
Search period end: 29 August 2017 00:00
Orbit: 717 x 721 km, 57.0° (Epoch: 19 August)

Date Brightness Start Highest point End Pass type
(mag) Time Alt. Az. Time Alt. Az. Time Alt. Az.
19 Aug 3.3 05:07:35 10° NNW 05:12:21 40° NE 05:17:05 10° ESE visible
19 Aug 1.9 21:14:14 10° SW 21:19:18 79° NW 21:24:24 10° NE visible
19 Aug 4.7 23:00:10 10° WNW 23:03:00 15° NNW 23:05:50 10° N visible
20 Aug 4.2 04:14:53 10° NNW 04:18:53 23° NE 04:22:53 10° E visible
20 Aug 2.0 20:21:16 10° SSW 20:26:10 52° SE 20:31:06 10° NE visible
20 Aug 4.1 22:05:17 10° W 22:09:22 24° NW 22:13:28 10° NNE visible
21 Aug 4.8 03:22:34 10° N 03:25:15 14° NNE 03:27:55 10° ENE visible
21 Aug 2.1 05:03:54 10° NW 05:08:59 75° NE 05:14:02 10° SE visible
21 Aug 3.1 21:11:08 10° WSW 21:15:55 42° NW 21:20:44 10° NNE visible
22 Aug 3.2 04:10:56 10° NNW 04:15:41 39° NE 04:20:25 10° ESE visible
22 Aug 2.0 20:17:34 10° SW 20:22:39 80° NW 20:27:44 10° NE visible
22 Aug 4.8 22:03:28 10° WNW 22:06:20 15° NNW 22:09:12 10° N visible
23 Aug 4.1 03:18:14 10° NNW 03:22:14 23° NE 03:26:12 10° E visible
23 Aug 1.9 05:00:31 10° NW 05:05:28 56° SW 05:10:25 10° SSE visible
23 Aug 4.2 21:08:35 10° W 21:12:42 24° NW 21:16:49 10° NNE visible
24 Aug 4.7 02:25:56 10° N 02:28:35 14° NNE 02:31:13 10° ENE visible
24 Aug 2.0 04:07:15 10° NW 04:12:20 74° NE 04:17:23 10° SE visible
24 Aug 3.5 05:52:20 10° W 05:54:42 13° WSW 05:57:04 10° SW visible
24 Aug 3.2 20:14:27 10° WSW 20:19:16 42° NW 20:24:06 10° NNE visible
25 Aug 4.0 03:22:09 19° ESE 03:22:09 19° ESE 03:23:45 10° ESE visible
25 Aug 2.6 05:01:47 28° WSW 05:01:49 28° WSW 05:06:05 10° S visible
25 Aug 4.7 21:06:46 10° WNW 21:09:40 15° NNW 21:12:34 10° N visible
26 Aug 4.2 20:11:55 10° W 20:16:02 24° NW 20:20:10 10° NNE visible
28 Aug 4.6 20:10:03 10° WNW 20:12:59 15° NNW 20:15:56 10° N visible
